Wind_Speed
22 23 24 24 25 26 26 26 25 25 24 23 21 19 17 16 15 14 13 12 11 10 10 10 10 11 12 13 14 14 15 15 16 17 21 19 13 15 17 15 13 12 11 11 9 7 9 10 9 9 9 9 9 6 4 1 1 3 4 3 5 6 7 8 7 6 6 6 6 5 4 4 6 7 8 8 9 11 11 10 11 10 9 12 13 12 14 15
22 23 23 24 25 25 26 27 26 26 25 24 23 21 19 17 15 14 13 12 11 10 10 10 10 10 11 13 14 14 15 15 17 21 24 19 15 16 16 14 12 11 11 11 9 10 11 10 7 7 8 9 9 4 3 3 5 3 4 3 5 6 8 9 8 9 8 8 7 7 6 4 6 6 6 6 6 9 10 10 10 12 10 10 13 13 13 14
22 23 23 23 24 25 26 27 27 27 26 25 24 23 21 18 16 15 13 12 12 10 10 10 9 10 11 12 13 13 14 14 18 24 23 18 15 16 15 14 12 9 10 9 7 10 10 10 7 6 8 10 7 3 3 2 5 1 4 4 6 7 8 9 10 10 12 11 7 6 7 5 6 5 4 4 5 4 5 7 8 12 13 10 12 14 13 13
22 22 23 24 24 25 26 26 27 28 27 26 25 24 22 20 17 15 14 13 12 10 9 9 9 10 11 11 12 11 12 13 14 18 17 15 15 14 14 14 11 10 9 6 7 11 11 11 10 7 9 9 7 4 2 3 6 3 3 5 7 8 9 10 11 11 11 11 9 7 6 7 7 5 4 3 3 2 0 4 6 11 17 15 15 18 18 17
21 22 23 24 24 25 26 26 27 28 28 27 26 25 23 21 18 15 14 13 12 10 9 9 9 10 11 11 11 8 6 6 4 8 11 12 12 11 13 13 10 9 8 6 8 13 12 12 12 9 9 8 6 4 1 6 5 4 6 8 9 10 9 12 14 12 10 6 8 8 6 6 7 5 4 2 1 2 1 5 9 11 17 21 19 19 21 22
21 21 22 23 24 24 25 26 27 27 29 28 27 26 24 21 18 16 14 13 12 10 8 8 9 9 11 11 11 7 6 3 4 2 6 8 10 10 11 11 10 9 8 8 10 14 12 11 12 10 9 7 5 3 2 6 7 4 7 9 11 12 11 12 13 12 12 10 10 8 6 6 6 4 4 4 3 4 4 6 11 10 15 22 22 20 20 23
21 21 22 23 24 25 25 26 27 28 28 29 28 27 25 22 19 16 14 13 12 9 8 8 8 10 11 11 11 9 12 12 5 5 7 6 9 10 10 11 11 10 10 11 12 14 11 11 11 11 10 5 3 2 5 7 7 5 6 7 9 12 13 11 10 9 10 11 9 6 4 4 4 4 5 5 5 7 6 8 12 10 14 21 22 22 20 21
21 21 22 23 25 26 25 26 27 28 28 29 29 28 26 23 19 15 14 13 11 8 8 8 9 10 11 10 9 9 17 21 15 14 14 11 10 11 12 13 13 12 12 13 14 13 11 11 11 10 10 5 1 3 7 4 3 1 2 6 7 12 13 7 7 8 8 8 8 10 4 4 4 4 6 5 5 7 8 10 12 9 13 18 19 20 20 20
21 22 23 24 25 26 26 26 27 28 28 28 29 29 27 23 18 15 13 13 11 8 8 8 9 10 11 9 7 9 14 16 14 12 14 13 9 12 15 15 15 14 13 14 15 14 13 13 11 6 8 8 2 2 4 3 2 1 2 5 8 9 9 4 6 9 6 6 7 10 7 5 4 3 5 6 5 7 9 10 12 9 9 12 14 16 17 18
22 23 23 24 25 26 27 27 27 28 29 28 28 28 27 23 18 14 13 12 10 8 7 9 10 9 8 5 7 7 4 8 10 9 14 14 9 14 17 15 15 14 14 14 14 15 15 13 11 8 9 11 3 1 2 4 3 3 5 8 9 8 7 5 5 7 5 4 6 6 6 7 1 3 2 7 6 6 9 10 13 13 10 9 11 14 15 16
23 23 24 25 26 27 27 27 27 28 29 29 28 28 27 22 17 14 13 11 9 7 7 8 9 8 6 6 10 9 2 3 6 5 11 14 11 15 17 16 15 14 14 14 14 13 14 12 9 9 9 9 5 2 1 3 2 6 7 5 6 6 6 5 2 7 4 3 6 5 3 7 5 3 1 7 7 5 7 8 11 13 13 13 12 14 15 15
23 24 25 25 26 27 27 28 28 28 28 29 28 27 26 21 17 14 12 10 8 6 7 7 7 6 5 8 17 14 3 2 6 5 8 11 10 14 16 15 14 15 15 14 14 12 14 13 10 10 10 11 10 5 3 3 1 8 5 2 1 1 2 3 1 7 3 3 8 4 0 4 5 2 3 7 7 5 5 6 9 10 12 14 14 14 15 15
23 25 26 26 26 27 28 28 28 28 28 28 28 27 24 20 17 14 10 8 7 5 6 6 6 4 4 9 17 13 6 5 6 6 8 8 8 11 15 14 14 15 15 14 15 11 12 13 12 13 12 14 11 6 2 1 1 6 4 4 3 3 5 3 3 6 5 5 8 4 1 2 1 3 5 5 6 6 4 5 7 8 10 12 13 13 14 16
23 24 26 26 26 27 27 28 29 28 27 27 27 26 22 18 16 13 9 7 5 5 6 5 5 3 6 11 9 7 11 8 6 8 10 10 10 12 14 15 13 14 14 15 15 11 10 10 13 14 13 15 12 7 4 2 3 5 5 4 4 3 4 5 7 8 6 5 7 4 1 4 3 3 5 3 3 5 3 4 5 7 9 11 12 12 13 15
23 24 26 26 26 27 27 28 29 29 27 27 27 25 20 16 15 11 8 6 5 5 5 5 5 3 8 14 10 9 14 12 10 11 12 13 14 14 15 16 13 13 14 14 14 11 8 9 12 13 13 15 14 10 5 3 6 6 5 7 6 5 4 4 8 9 7 8 8 5 1 4 3 2 3 3 3 4 3 3 4 6 8 10 11 12 12 13
24 25 26 26 26 26 27 28 29 29 28 26 26 23 18 15 14 11 8 6 5 5 4 2 5 6 8 9 8 12 14 15 15 13 13 15 15 14 16 16 13 13 13 12 12 10 8 10 12 13 14 13 11 9 4 2 2 3 2 8 10 9 5 4 9 11 9 10 9 6 1 2 2 2 3 3 4 5 3 3 4 5 7 8 9 11 11 12
25 25 26 26 26 26 27 28 29 29 28 27 25 21 16 14 13 10 7 6 5 5 5 3 3 8 11 7 5 11 13 14 15 14 15 16 15 15 15 15 14 13 12 12 12 11 10 12 12 11 12 10 8 8 4 1 2 3 5 10 13 10 5 7 9 11 12 11 9 7 3 2 1 3 4 4 5 6 3 4 6 5 6 7 8 9 10 11
25 25 26 26 26 26 27 28 29 29 29 26 22 18 15 14 13 11 8 5 4 5 7 7 5 6 10 12 11 12 12 12 15 16 16 15 16 15 15 14 13 13 13 12 13 14 12 12 11 9 8 9 8 8 5 2 6 6 6 8 9 8 4 10 10 10 12 12 11 10 5 1 1 2 5 6 5 6 5 5 5 4 6 6 7 8 10 11
25 25 26 26 27 26 26 27 28 29 29 24 18 17 14 13 12 9 6 4 5 5 5 7 12 6 7 8 13 11 10 13 14 16 16 16 16 15 15 14 13 15 14 10 12 15 13 10 10 9 8 9 10 10 8 6 10 8 5 5 6 8 3 8 12 10 9 7 9 11 6 2 2 5 7 8 7 5 6 5 5 5 5 6 7 8 9 8
26 26 26 26 27 26 26 27 27 29 28 20 15 13 11 11 8 2 0 8 14 14 13 9 14 15 13 7 8 4 9 14 14 15 17 17 16 15 15 15 15 15 13 10 11 14 14 10 9 9 10 12 13 14 11 9 11 8 5 6 8 9 7 7 13 9 4 2 1 7 7 9 9 9 9 10 9 6 5 5 6 6 4 5 6 7 7 6
26 26 26 26 26 27 26 25 26 27 22 15 13 10 9 10 8 4 7 11 18 21 23 18 15 19 17 10 5 7 10 12 14 15 16 17 17 14 15 17 14 11 12 14 12 13 14 11 11 13 14 15 15 13 11 11 10 8 6 6 7 8 6 5 8 4 3 2 3 6 6 12 11 7 9 10 9 8 7 6 6 6 4 5 3 5 7 7
26 26 26 27 26 27 26 24 24 21 15 14 14 10 11 11 11 11 13 13 18 21 23 21 19 19 17 11 5 8 10 11 14 16 17 19 18 14 15 16 13 9 12 15 12 11 11 11 14 16 15 16 16 13 12 11 9 7 6 6 5 8 8 3 5 3 4 2 2 6 1 8 13 7 9 11 9 8 8 6 6 4 3 4 2 5 7 8
26 26 27 27 27 27 25 24 20 15 15 18 16 12 14 16 15 14 12 13 17 19 20 20 21 19 17 15 7 7 11 11 14 18 20 20 20 18 15 14 13 12 13 14 13 11 10 11 15 17 16 16 15 14 14 11 7 6 6 6 5 7 9 2 1 4 5 3 4 6 2 3 12 9 8 10 9 7 7 7 7 4 3 6 2 4 7 8
25 26 26 26 27 25 25 23 14 11 18 21 19 15 14 16 14 12 13 13 14 17 20 19 20 20 19 17 12 11 13 12 14 18 22 21 20 19 15 14 14 13 13 16 18 15 14 14 16 16 16 17 16 15 15 9 5 7 8 8 7 9 13 5 4 6 5 4 8 4 3 1 7 7 5 6 8 7 8 9 8 6 6 6 2 2 6 7
23 24 24 25 26 25 25 19 8 9 18 19 17 13 10 11 9 9 11 11 10 13 17 17 17 18 18 16 14 14 13 13 15 18 23 23 20 16 13 14 12 12 15 18 18 15 16 19 18 15 15 16 15 14 13 7 4 7 10 10 9 14 17 11 8 9 8 2 8 3 2 3 3 2 1 5 7 8 9 9 7 6 6 5 5 5 7 8
22 22 23 23 24 25 23 16 9 14 17 12 8 7 7 8 7 9 8 7 6 5 9 12 13 13 16 18 16 13 11 13 16 17 22 24 22 17 12 11 10 12 15 15 12 9 12 19 20 16 14 14 15 13 10 8 6 7 10 10 9 11 14 10 9 10 7 2 3 1 3 3 3 2 3 7 8 9 9 8 8 7 6 6 7 7 7 8
22 22 22 22 22 24 23 18 17 19 15 9 7 7 9 8 7 8 6 6 5 6 9 9 9 9 12 16 16 12 6 9 16 19 21 23 22 20 14 10 10 11 12 10 9 8 11 17 19 18 16 11 11 10 7 8 9 6 9 12 7 7 12 11 11 9 7 3 4 6 7 5 2 3 7 9 9 9 9 8 8 8 8 8 7 7 7 9
23 22 22 21 19 20 22 23 24 21 14 11 12 12 9 9 9 6 6 6 2 7 8 7 7 6 9 13 18 17 9 5 13 17 21 23 22 20 14 13 12 10 13 11 8 10 13 15 17 18 15 9 8 10 9 10 11 8 13 16 8 5 9 11 9 8 8 5 1 5 8 4 1 5 7 8 8 9 9 10 10 10 10 10 10 9 10 10
23 22 22 21 17 16 19 22 21 15 9 9 12 11 8 9 8 5 6 4 3 6 6 8 9 8 11 12 17 21 16 7 8 15 22 22 21 19 14 15 16 11 14 15 11 11 11 12 15 15 12 9 10 12 12 12 10 10 13 13 9 7 8 10 9 7 7 6 7 4 4 2 3 4 6 6 6 7 8 9 10 13 14 13 13 12 11 11
23 21 21 22 17 14 18 19 14 11 8 9 10 9 8 8 7 6 6 3 3 7 9 9 9 10 13 13 14 18 17 12 10 15 21 19 20 21 16 16 17 13 11 14 14 14 14 13 14 13 10 10 12 13 13 14 14 12 10 8 7 8 9 9 6 6 6 3 8 11 5 4 1 3 5 4 5 6 6 8 9 12 15 16 14 13 13 12
23 20 20 21 18 15 19 14 6 8 10 11 11 9 8 6 5 7 5 1 1 6 10 8 9 11 14 13 11 14 15 14 11 13 15 13 15 18 15 12 12 10 9 10 12 14 18 16 9 8 11 9 8 11 12 14 15 12 8 6 6 7 7 7 2 4 6 5 7 11 11 6 1 2 3 3 7 6 8 8 10 13 16 18 16 15 14 11
22 20 19 19 18 18 19 13 7 10 12 11 11 9 7 6 6 8 5 2 2 6 7 8 10 10 13 14 11 13 14 13 12 13 11 11 11 13 13 10 8 9 9 9 9 12 15 15 9 8 12 12 8 8 8 10 11 9 7 5 6 6 5 4 1 1 4 7 9 10 8 5 2 3 2 3 3 4 10 7 9 14 16 18 17 15 15 14
21 20 19 16 17 19 18 13 11 12 12 11 10 9 7 6 7 9 8 6 2 4 2 5 10 9 11 12 11 13 14 12 13 12 11 12 11 12 16 15 12 10 8 8 9 9 10 13 14 12 10 13 12 8 6 7 8 8 7 6 6 6 5 5 4 4 5 6 9 9 5 2 2 2 1 2 5 9 12 9 9 14 16 17 17 15 15 15
20 19 19 15 16 18 16 12 10 9 8 8 9 8 8 8 8 9 10 8 3 5 2 3 8 10 10 10 10 12 12 12 14 12 10 12 10 10 14 17 18 13 9 9 8 9 10 10 13 14 10 11 14 13 11 10 8 8 9 8 8 7 6 5 4 6 6 5 7 6 4 2 2 2 1 5 8 10 13 12 12 13 14 14 16 15 13 14
19 17 17 15 14 15 13 11 9 7 7 8 8 8 9 8 8 9 7 4 1 4 6 4 5 8 9 10 11 13 12 11 13 13 10 11 10 10 11 14 18 16 10 9 7 8 11 9 10 17 16 13 14 15 14 13 10 8 8 8 8 8 6 5 5 8 8 5 6 4 1 3 4 5 3 7 10 11 15 13 12 14 14 14 14 15 14 14
19 15 15 14 12 12 11 10 8 8 10 10 8 8 9 8 8 8 4 4 5 3 5 6 6 8 8 8 10 13 14 11 12 11 10 12 12 13 12 11 17 18 13 9 6 7 9 8 10 16 18 16 14 13 14 14 9 7 8 8 9 8 6 6 7 7 7 5 3 3 3 3 6 5 5 9 10 9 11 11 10 12 14 13 12 13 13 14
18 16 14 13 12 12 12 10 8 11 12 10 9 8 9 10 13 12 4 2 5 6 5 3 6 7 7 7 7 12 14 11 11 10 9 11 12 14 15 13 16 20 19 14 8 7 8 7 10 15 16 16 16 13 14 16 13 9 6 4 6 8 6 5 5 5 5 5 3 5 5 2 4 2 4 11 11 8 8 10 11 10 11 11 11 10 11 11
18 18 16 12 9 10 14 12 9 12 12 9 10 11 11 12 16 17 7 3 5 5 7 7 5 6 8 7 7 11 13 9 10 9 8 8 9 13 16 14 14 19 22 20 11 7 8 7 8 15 15 13 14 12 11 14 17 15 8 5 2 5 4 3 3 5 5 5 4 4 4 4 1 4 1 8 10 9 8 10 12 12 11 10 7 8 10 9
17 16 15 9 10 13 14 11 10 13 11 9 8 9 11 13 18 22 14 6 6 8 7 9 7 6 7 7 7 10 12 10 9 9 8 7 8 13 15 13 14 18 21 21 13 8 7 7 7 11 14 11 10 9 8 9 14 16 13 7 3 3 4 2 3 4 4 5 4 4 4 2 0 2 7 11 12 11 10 10 12 14 13 12 11 11 11 10
14 13 11 5 13 15 13 10 11 12 9 9 9 9 10 13 16 20 16 7 6 8 8 10 10 7 7 8 8 9 10 11 12 8 7 8 7 11 14 13 12 15 19 20 15 10 7 6 8 6 12 10 7 8 9 9 10 11 11 9 7 5 2 3 4 5 4 4 4 5 4 1 4 4 8 14 14 12 12 12 10 13 15 13 15 15 12 13
11 10 6 9 13 12 11 10 10 10 8 8 11 11 12 14 14 15 16 12 11 12 12 12 11 8 8 7 7 9 8 9 12 10 7 9 8 6 10 13 12 12 15 15 13 11 7 6 8 7 8 9 8 10 14 13 11 10 10 10 9 6 4 3 6 5 3 5 6 6 4 4 6 5 7 12 13 12 15 14 9 11 15 14 14 15 15 17
10 8 5 10 11 10 10 9 9 10 9 9 12 14 14 14 14 13 10 10 12 12 13 13 11 10 8 5 6 11 10 8 11 11 7 8 9 7 9 13 14 12 10 10 11 12 9 6 7 8 7 9 10 12 14 15 15 12 10 11 10 7 6 6 7 4 3 7 7 6 3 3 5 4 8 14 17 16 18 18 13 13 16 16 14 15 17 19
11 11 6 5 10 11 11 8 9 9 9 12 15 19 20 15 9 11 12 10 10 10 10 11 10 10 9 4 6 11 9 6 11 12 10 9 10 10 12 14 13 12 9 7 9 12 10 6 7 8 7 7 10 11 12 13 13 13 10 9 9 9 9 9 9 5 4 8 6 3 2 3 4 4 10 17 18 18 18 19 19 17 16 17 17 17 18 19
15 18 15 11 11 13 11 7 8 9 10 14 15 17 22 16 9 11 13 11 11 9 10 11 10 10 9 5 7 8 5 4 9 13 10 7 8 11 11 13 10 10 9 7 7 9 9 6 7 7 7 7 8 9 10 11 10 9 9 10 12 13 13 13 10 7 6 7 5 4 3 4 6 3 8 15 15 14 14 16 19 20 18 18 18 18 19 19
15 13 14 15 14 16 14 11 10 9 8 10 11 13 19 15 12 15 15 12 14 12 9 9 8 7 7 6 7 6 4 6 7 11 10 6 7 13 10 11 9 11 11 11 10 9 8 7 7 7 7 7 6 5 5 8 9 8 11 14 13 13 14 13 8 7 7 4 3 4 2 5 8 7 8 14 15 15 15 15 18 20 19 19 19 19 19 19
9 7 7 11 15 18 17 18 16 13 9 7 7 11 16 13 12 16 16 13 13 12 10 8 6 5 7 9 7 3 6 10 10 8 11 9 8 11 10 12 10 8 5 8 11 7 6 7 9 10 10 8 6 8 8 9 10 10 12 14 12 10 12 11 8 7 5 3 4 6 6 7 8 8 9 12 12 13 13 13 16 20 19 20 21 19 19 19
7 6 4 2 8 13 15 17 16 13 9 5 4 6 12 16 11 11 15 12 12 11 9 8 7 6 6 6 5 1 2 9 9 11 11 7 5 8 4 10 10 2 7 4 11 7 5 8 11 14 16 15 13 15 12 8 10 10 12 14 13 13 13 11 10 9 6 5 5 1 4 5 5 6 8 10 11 10 8 6 13 20 18 17 19 19 18 17
7 9 7 6 4 8 8 7 9 8 4 2 4 6 8 14 17 11 11 12 12 11 7 7 10 9 5 2 3 2 4 5 4 9 11 8 10 11 4 6 11 5 1 6 10 6 4 7 11 13 15 16 18 20 17 9 9 11 13 14 15 16 16 15 13 12 10 8 5 1 3 5 5 10 11 10 10 10 8 9 15 19 17 15 16 17 17 16
9 11 10 12 9 10 10 10 10 9 2 6 3 7 9 11 16 17 11 7 10 10 7 7 8 5 5 3 3 1 4 4 1 4 9 9 9 10 6 5 10 9 8 10 8 6 5 5 8 12 12 15 18 19 19 16 12 13 15 16 15 16 18 17 16 13 11 11 10 9 8 2 4 9 11 11 10 10 10 11 13 16 17 18 15 14 14 14
9 9 12 17 13 12 13 10 8 8 3 6 4 5 8 10 15 18 13 8 7 5 1 3 5 3 1 3 2 3 2 4 2 2 7 8 8 8 6 2 4 6 8 10 8 7 7 4 7 10 10 12 15 17 18 18 17 17 15 13 13 14 15 17 16 14 12 13 14 16 9 6 12 12 15 15 12 13 18 22 22 19 17 16 14 13 15 17
10 9 11 13 10 9 11 8 6 7 5 4 4 5 6 9 13 15 13 11 5 2 4 5 6 6 5 4 2 4 3 6 6 2 4 5 4 7 9 5 5 7 7 9 8 8 7 6 7 7 8 8 11 15 18 18 19 20 16 9 9 14 15 11 11 13 15 15 16 13 5 6 10 11 14 14 11 14 20 25 27 24 20 16 14 18 21 23
12 10 9 9 8 7 8 7 6 7 6 4 5 6 6 8 9 9 10 11 5 5 6 3 4 3 5 6 3 5 4 7 7 5 8 7 7 11 16 17 15 11 7 7 8 7 7 6 7 7 7 8 11 14 15 16 16 14 13 12 12 13 12 12 15 14 10 8 7 3 5 8 9 10 12 11 10 13 17 21 25 26 22 20 22 24 24 24
Wind_Direction
4 4 3 3 2 1 360 0 1 1 359 355 350 344 339 335 331 325 321 318 307 289 277 276 276 280 286 289 291 291 294 290 286 281 268 255 247 251 253 258 268 277 279 279 277 247 244 251 252 265 268 275 266 262 319 360 349 324 282 321 21 33 27 32 62 92 91 100 115 139 157 134 134 128 131 135 118 119 119 108 101 95 82 96 120 137 147 151
1 1 0 360 359 359 357 356 356 357 357 355 350 345 339 334 331 327 321 318 310 292 277 274 275 280 285 288 291 293 294 293 289 276 262 254 247 248 253 258 265 269 266 277 269 232 240 253 254 265 267 278 273 272 334 10 31 337 278 348 29 44 42 39 76 109 99 97 114 138 162 154 129 130 141 144 128 128 126 118 119 110 99 114 127 135 156 159
358 358 358 357 357 356 355 353 352 352 353 353 350 345 339 334 330 327 322 317 312 297 279 274 275 279 282 287 292 295 298 303 292 273 258 253 249 245 249 252 258 262 261 274 255 232 249 268 277 281 277 282 281 322 342 344 26 322 259 5 36 49 56 50 61 86 97 110 125 136 145 133 120 126 127 120 117 128 127 125 135 127 124 140 142 142 155 164
356 356 356 355 355 354 353 352 349 348 349 350 350 345 339 333 329 327 323 317 312 299 282 274 273 276 282 288 290 295 309 310 286 266 257 252 245 240 243 244 250 254 256 256 231 240 256 269 284 290 284 286 277 296 346 40 19 329 320 18 34 46 53 47 51 61 80 116 130 116 113 107 115 116 104 113 109 92 184 155 151 141 142 150 154 156 158 164
354 355 354 353 352 352 351 350 348 346 345 346 347 345 339 333 327 326 324 318 312 300 284 273 272 276 282 288 287 288 303 307 263 235 241 244 242 237 237 238 241 244 249 234 222 246 257 266 280 279 273 281 284 288 41 58 33 331 357 29 33 47 52 37 42 37 29 69 89 87 91 97 113 110 108 132 89 107 167 166 162 154 152 154 158 164 163 164
352 353 352 352 351 349 349 347 346 344 342 342 344 344 340 333 326 324 323 319 313 299 282 271 272 279 284 286 282 270 249 257 79 153 224 228 234 232 229 227 227 232 233 219 227 247 255 263 270 268 264 271 301 322 59 46 40 2 358 25 33 50 60 43 42 32 19 31 42 66 105 108 113 109 118 118 102 145 154 152 164 170 166 160 158 165 169 166
350 351 351 351 349 347 347 346 345 343 341 340 340 341 339 334 326 322 322 319 312 296 278 271 276 284 289 285 276 257 240 248 269 272 268 260 238 226 218 213 214 221 219 215 229 244 249 259 265 268 273 269 274 311 70 43 24 13 351 19 43 57 62 54 55 49 35 38 18 11 102 113 109 120 127 120 114 137 145 144 158 171 169 164 162 167 174 174
347 348 349 349 347 346 345 344 343 341 340 339 338 339 338 335 326 321 322 319 311 292 270 271 282 289 290 278 267 255 247 249 254 260 267 276 256 221 208 204 209 216 217 217 226 240 248 254 258 266 286 310 350 12 65 55 336 17 14 21 52 62 63 65 76 69 47 46 4 344 12 60 76 135 137 131 132 132 137 139 147 165 167 163 166 174 177 178
345 346 347 347 346 344 343 343 341 340 339 338 338 336 336 335 327 321 322 318 312 287 263 273 286 292 287 266 250 261 258 239 228 241 252 267 261 213 203 205 209 213 216 220 227 241 246 250 266 297 309 307 340 27 65 69 354 75 87 40 47 53 66 89 87 76 54 52 17 358 356 13 58 167 149 137 151 141 139 134 142 160 169 166 170 179 179 179
343 343 344 345 345 343 341 341 339 339 339 338 338 335 335 335 328 323 321 320 310 282 263 275 289 295 280 242 229 245 241 203 212 240 245 258 255 204 199 203 209 213 213 219 227 240 246 258 298 327 298 284 275 146 94 65 32 47 54 57 51 35 47 49 71 86 83 85 52 25 347 330 304 221 169 142 163 156 145 139 146 155 164 171 168 175 182 184
340 340 341 342 343 341 340 339 337 337 338 338 337 334 334 334 329 324 321 319 306 283 269 276 296 292 244 216 236 233 181 184 212 235 240 252 247 207 196 196 206 214 211 219 228 238 250 262 296 298 290 309 319 263 106 52 35 62 50 50 57 34 22 1 56 105 106 111 82 68 335 304 261 237 122 144 159 169 161 144 144 151 160 170 170 176 183 187
337 337 338 339 341 340 338 337 335 336 338 338 336 334 334 333 330 325 322 319 303 282 268 280 301 278 219 232 239 225 194 237 204 185 225 245 242 213 194 192 205 213 211 223 230 233 249 263 283 279 292 313 307 309 60 42 44 97 91 269 85 59 289 310 84 110 111 113 105 109 223 272 250 216 128 142 147 165 175 150 148 151 156 163 169 176 182 190
334 335 336 337 339 338 336 335 334 335 337 337 335 334 334 332 331 326 322 317 300 282 267 283 300 259 219 248 242 227 218 244 225 199 209 217 217 208 194 193 208 215 217 230 237 239 244 256 276 278 288 291 298 345 50 274 265 122 122 250 232 251 244 223 179 144 137 114 126 157 93 103 199 149 133 133 152 177 179 168 166 153 152 158 164 173 180 191
331 332 333 335 337 337 335 334 333 334 336 336 334 333 333 332 331 328 320 310 297 285 266 279 300 251 227 250 256 234 214 216 233 210 203 198 193 199 196 198 210 217 222 232 245 260 255 249 263 272 280 277 286 312 265 215 18 28 8 283 235 263 250 205 194 165 153 149 161 199 31 74 69 105 133 141 196 196 190 199 177 154 157 159 162 171 177 187
328 329 330 332 335 335 335 333 332 333 335 335 333 331 332 330 330 328 318 306 295 278 264 287 302 266 254 262 261 232 215 218 236 218 206 200 192 195 197 200 210 216 222 230 243 262 264 252 257 263 265 261 263 272 257 106 59 33 350 286 257 238 224 196 191 176 163 163 180 220 331 81 81 94 159 174 226 229 225 229 194 167 165 161 165 169 169 180
326 327 328 329 332 334 334 332 332 332 333 334 331 328 328 327 325 322 314 303 290 272 253 305 330 301 277 277 249 224 223 227 229 216 204 200 196 198 195 198 209 215 219 225 236 251 253 248 254 261 267 267 256 252 249 84 60 101 187 265 261 234 192 170 196 186 165 154 177 218 283 35 97 161 194 181 221 236 228 241 230 191 164 163 171 168 165 175
324 325 327 327 329 333 333 332 332 332 332 333 329 325 323 320 316 312 308 293 277 266 237 207 328 289 258 258 248 226 223 223 216 206 202 199 199 199 190 196 207 209 213 220 229 242 243 241 250 256 256 259 260 257 244 117 256 205 200 244 258 250 189 163 184 181 173 166 177 198 220 326 68 157 192 192 226 241 225 238 236 201 169 173 178 172 170 176
323 324 325 326 327 331 332 331 333 332 331 331 328 323 317 313 309 299 291 286 272 262 255 226 216 270 251 233 243 237 219 212 204 197 196 194 199 198 189 195 203 199 207 220 224 230 236 237 246 254 246 241 244 250 244 203 233 239 225 238 269 279 204 152 157 174 183 185 182 185 203 301 39 206 194 179 217 252 238 239 248 213 182 177 176 174 175 182
321 322 323 325 325 328 331 331 333 332 331 330 326 319 311 307 300 289 288 263 225 230 256 207 196 251 304 226 230 243 211 194 191 190 190 190 195 196 191 196 199 198 206 215 213 218 228 236 238 246 250 244 238 236 241 218 221 250 276 276 296 294 277 128 141 164 177 202 191 176 191 189 195 227 196 177 198 239 250 250 267 245 200 185 183 175 179 185
319 320 321 323 323 326 329 331 333 333 332 331 329 320 309 312 297 258 320 231 234 255 271 242 212 244 283 253 218 216 172 176 187 189 189 188 190 193 192 196 200 202 212 218 211 210 220 240 238 236 243 246 250 246 249 240 233 264 303 295 293 296 319 102 131 144 141 296 211 141 164 175 192 213 183 180 189 198 240 248 257 257 233 217 194 162 169 176
318 320 320 322 322 324 328 331 333 334 334 334 337 321 303 336 348 340 331 268 252 261 264 261 246 248 267 268 197 157 159 177 196 195 189 187 189 192 189 194 203 201 211 222 225 215 213 236 240 239 245 246 255 259 261 264 263 276 280 283 292 291 306 83 91 64 99 12 49 119 160 163 173 209 179 176 184 189 216 229 247 254 242 236 197 134 144 150
317 319 320 321 320 323 327 331 333 333 335 335 336 317 291 325 343 324 317 294 278 270 257 252 251 249 256 257 195 179 196 195 201 198 187 185 190 196 185 191 210 207 206 217 228 225 215 231 239 242 250 250 255 265 263 265 270 275 274 280 286 293 301 46 46 358 145 156 131 132 149 129 134 166 183 177 179 194 211 213 237 257 286 275 201 141 144 145
315 317 318 319 318 321 326 331 333 334 341 338 329 307 289 302 315 311 301 286 285 276 255 239 238 239 238 233 203 198 224 210 202 198 185 184 196 203 192 191 214 215 207 210 219 231 225 223 230 237 248 253 255 256 254 254 263 271 274 272 269 288 287 269 21 265 195 187 141 135 277 100 118 139 175 179 175 188 203 206 221 220 261 271 241 155 152 154
314 316 317 317 317 319 324 331 341 345 338 329 315 304 299 302 306 307 297 282 278 269 254 234 225 228 226 226 211 207 229 222 209 197 183 188 200 206 207 202 211 220 215 214 216 229 243 235 224 222 234 250 257 256 253 250 252 260 260 266 283 280 270 287 8 280 256 115 119 141 271 105 119 133 159 182 179 188 198 203 211 199 206 215 202 213 169 155
314 316 317 318 316 316 323 333 348 328 318 308 301 305 308 308 309 309 300 284 270 251 241 227 217 220 215 216 212 208 226 230 222 202 183 192 203 203 214 210 209 223 217 219 221 225 241 247 241 225 217 231 245 255 264 273 278 262 252 241 253 273 281 317 344 288 285 116 143 178 334 51 88 109 164 203 190 194 198 201 205 202 216 169 130 199 180 147
315 317 319 319 317 317 321 327 323 312 313 309 304 314 320 316 314 312 299 277 268 207 187 192 193 198 199 204 201 201 226 227 225 214 185 191 208 209 217 210 206 228 221 219 230 230 233 243 252 251 233 225 231 239 244 255 257 249 257 245 230 261 281 296 292 282 300 323 151 92 51 65 23 354 247 215 202 201 191 197 206 191 205 187 153 185 182 151
313 315 318 319 319 320 319 316 317 316 312 323 331 316 315 313 310 314 290 262 248 169 144 156 172 179 195 198 181 184 235 203 204 218 192 185 206 216 226 219 202 223 231 224 224 228 229 232 240 249 250 240 238 247 231 234 256 263 276 271 252 272 284 286 293 295 305 336 91 91 94 99 53 287 236 202 197 206 186 190 206 186 191 202 182 182 188 176
310 312 314 315 317 320 314 307 316 318 299 302 315 303 301 303 304 305 275 272 203 151 142 149 166 179 197 191 179 197 244 183 183 210 193 184 201 212 224 232 224 216 223 233 231 224 226 230 235 239 248 253 245 255 245 228 237 246 261 267 274 309 295 292 299 287 291 306 239 110 92 86 233 237 225 201 201 209 191 190 200 193 194 199 192 193 206 198
307 308 310 310 312 316 306 303 315 319 291 290 303 298 295 295 294 276 257 269 167 160 150 150 162 180 195 188 187 209 232 221 197 193 182 184 201 213 226 234 241 236 221 230 243 237 226 223 235 239 239 247 247 253 257 251 246 247 258 274 301 319 292 279 275 279 310 319 297 323 89 154 228 191 193 206 224 219 197 193 195 193 193 196 195 193 207 206
303 305 307 305 308 311 301 304 328 341 327 311 305 303 298 283 273 254 241 238 186 166 137 145 169 182 193 191 193 210 219 227 221 181 174 182 198 216 234 232 239 253 233 227 238 253 256 236 228 237 239 235 239 242 244 250 259 268 270 273 280 272 262 264 272 304 321 297 295 304 273 229 216 169 177 195 234 223 185 178 184 190 190 193 197 191 202 209
301 302 301 299 302 302 292 293 336 344 327 316 307 300 283 259 247 252 235 187 230 156 139 165 183 177 190 198 198 201 210 227 215 172 170 186 195 208 225 226 226 243 244 231 226 239 256 253 230 240 266 271 260 247 235 236 246 263 279 274 265 258 246 247 269 331 305 281 297 297 284 280 307 139 147 201 243 207 163 170 177 184 188 190 194 191 197 204
303 299 293 292 293 286 278 273 277 284 286 294 295 280 260 239 229 245 238 199 202 174 178 197 181 177 194 204 207 193 201 223 204 178 182 197 199 200 211 218 201 211 233 231 220 220 236 249 240 230 247 254 265 263 244 244 245 248 269 275 269 274 259 248 307 346 261 271 284 278 283 312 29 58 106 204 272 106 135 173 184 180 184 188 191 187 190 197
305 299 290 286 284 276 271 276 277 271 275 284 279 259 249 246 233 235 237 234 173 133 210 200 171 183 194 200 212 192 195 216 201 190 196 200 206 202 206 219 214 209 222 224 222 220 220 230 233 236 226 213 228 249 239 237 231 222 237 248 251 266 274 270 276 262 244 259 269 257 259 330 61 18 349 90 47 73 116 150 180 184 185 185 188 187 186 187
306 301 293 283 275 272 269 272 272 267 265 260 255 243 234 243 250 247 242 240 181 127 220 209 168 184 193 206 216 187 193 223 206 194 200 202 209 207 203 216 221 221 225 230 231 221 224 223 214 222 220 194 207 226 238 248 244 224 221 229 241 248 262 275 270 279 297 309 282 254 200 197 154 190 271 79 74 65 89 124 155 170 180 180 181 190 187 174
310 303 294 283 270 267 267 264 260 253 234 229 238 238 230 236 244 246 254 281 321 179 204 201 189 200 191 208 224 192 193 227 206 194 209 209 211 215 208 207 215 223 224 226 238 225 229 240 212 206 208 204 205 210 225 247 255 242 221 214 236 249 257 269 260 264 280 296 309 331 134 176 133 146 158 103 98 81 81 106 132 144 163 175 181 192 189 173
315 305 295 286 271 267 265 257 245 223 213 222 234 233 233 241 248 252 280 354 341 271 214 186 207 229 195 195 225 199 193 218 203 192 211 214 216 221 217 205 203 214 224 223 233 232 228 241 228 206 199 205 210 201 207 224 240 250 237 217 220 239 261 274 277 275 276 288 322 318 276 172 123 140 140 105 101 99 98 112 129 141 154 169 189 195 188 181
320 314 301 276 257 249 233 226 221 207 206 223 238 240 244 247 254 265 281 1 328 313 293 242 199 223 213 195 218 199 190 205 200 196 211 209 213 219 217 216 202 203 220 230 233 239 244 255 229 205 196 198 204 203 202 213 229 249 267 261 213 213 238 269 298 312 287 282 258 247 275 68 100 205 156 119 113 112 116 125 134 141 148 166 197 199 188 184
325 324 306 269 227 206 204 204 203 201 207 228 242 249 259 258 260 270 285 314 294 274 260 258 207 206 227 215 211 199 189 195 196 202 219 208 203 209 210 218 209 198 210 223 231 243 251 273 242 205 192 185 190 205 209 207 222 237 258 305 267 221 240 242 264 299 287 282 283 284 327 28 15 288 115 120 125 130 141 142 134 139 156 166 180 200 198 176
328 320 298 257 191 182 191 195 200 207 216 233 238 240 253 261 263 274 294 318 275 256 252 261 242 219 241 243 231 208 195 205 213 203 214 212 189 196 203 210 209 198 201 211 225 248 249 272 263 198 172 172 183 200 220 205 208 228 246 260 240 234 272 253 214 246 278 291 304 306 319 4 64 13 66 107 135 147 149 145 137 143 160 162 161 191 202 160
323 301 282 204 167 175 183 191 205 216 225 233 242 243 245 253 250 254 266 271 260 259 252 256 251 237 250 250 240 227 205 210 224 213 204 211 190 185 196 208 214 200 195 203 215 233 232 243 263 205 161 182 200 188 213 225 202 205 232 244 227 209 233 298 259 230 233 254 261 266 272 68 75 54 76 109 133 143 134 133 137 146 157 168 172 184 183 156
311 284 255 161 157 169 183 199 213 221 232 234 243 249 248 259 261 246 239 234 239 250 248 258 269 265 259 253 246 244 219 206 228 228 204 205 207 202 201 208 218 203 189 198 210 221 223 225 251 238 178 194 220 200 206 231 231 204 201 222 234 227 208 242 250 239 258 276 271 276 289 70 71 37 49 84 105 116 118 122 136 155 160 170 180 180 173 170
290 265 217 168 173 186 196 215 226 223 234 238 242 250 247 251 269 273 259 236 230 239 248 259 267 266 270 289 287 263 237 212 222 228 227 217 207 207 196 194 209 214 198 197 206 213 225 241 253 250 221 204 211 208 203 218 239 237 214 207 219 225 219 238 250 232 259 277 275 282 289 94 90 57 66 89 108 119 122 132 153 171 165 166 179 183 176 176
276 275 282 208 201 212 218 233 234 225 237 245 244 250 247 235 239 267 271 259 243 233 237 248 248 249 251 246 269 275 273 247 223 219 228 225 214 211 193 183 203 219 211 201 201 203 212 241 259 260 266 238 204 198 198 205 227 243 233 207 208 219 216 229 257 260 237 253 264 280 275 120 107 90 101 113 121 126 134 148 160 168 167 169 180 185 179 180
295 290 283 259 223 218 227 236 237 231 232 242 248 256 255 242 226 247 247 241 246 237 227 239 241 241 248 249 256 268 296 288 238 232 231 208 222 238 200 173 194 214 211 201 182 184 193 214 242 249 268 258 211 188 191 197 209 234 238 216 205 217 226 226 239 256 245 251 284 309 325 100 124 140 118 120 122 128 148 162 160 164 172 173 178 183 182 183
303 286 260 246 223 216 230 240 246 250 245 257 279 287 275 255 228 247 255 242 242 242 234 238 244 252 259 260 265 273 328 322 275 256 252 213 231 253 209 160 191 214 209 203 187 180 189 196 215 231 244 244 215 198 204 195 195 214 236 235 214 206 229 241 240 247 248 268 318 289 288 107 142 165 129 124 130 141 162 174 165 165 170 167 171 180 183 188
299 286 250 229 210 210 230 244 251 261 269 287 305 298 289 272 226 231 250 258 255 249 243 239 243 265 253 238 253 332 342 303 299 289 258 219 218 242 193 158 201 216 162 187 206 208 208 203 204 218 240 254 244 245 237 197 193 206 216 235 242 218 223 240 253 264 258 261 269 232 194 161 164 161 133 130 133 142 166 183 169 162 161 157 163 174 181 189
275 294 306 275 223 218 224 232 243 257 263 265 287 294 293 297 286 228 216 236 259 252 241 239 235 243 258 259 257 255 277 274 303 328 295 261 299 298 192 164 209 207 80 174 224 230 228 216 209 213 231 250 259 263 256 201 192 217 214 219 237 241 238 235 233 247 257 254 272 249 154 173 149 119 127 135 130 137 159 157 143 150 156 153 157 169 177 183
275 294 318 360 307 249 240 250 271 290 314 359 319 312 300 302 305 277 211 212 243 245 233 242 234 210 203 296 284 272 318 300 309 338 325 326 341 329 306 207 219 212 115 228 230 239 251 229 217 216 224 237 250 265 272 248 206 220 229 221 218 224 236 247 243 239 245 255 279 51 175 221 169 140 139 128 125 138 151 141 136 142 145 141 149 167 174 178
317 311 321 348 329 286 295 314 309 300 354 83 12 310 304 299 295 284 259 222 229 231 225 243 245 201 173 211 235 219 1 338 267 339 337 348 353 333 315 250 231 225 225 227 224 233 256 249 231 229 227 227 236 251 264 264 250 240 238 232 225 218 215 228 245 247 246 256 263 247 233 232 105 125 109 94 109 118 111 120 125 126 134 142 149 162 171 182
347 331 327 334 320 295 293 293 294 285 230 135 143 259 276 284 290 287 275 254 238 231 262 327 320 321 230 217 214 129 69 305 296 359 339 353 1 328 307 277 283 296 262 235 219 205 212 239 246 247 246 229 224 232 245 256 265 266 256 234 239 251 232 215 219 228 239 245 245 248 249 73 73 77 76 80 101 100 86 84 85 95 121 142 152 164 178 189
349 323 321 321 305 301 302 287 286 286 245 186 195 230 253 264 281 293 286 273 268 104 70 23 353 321 279 244 211 129 147 284 300 340 318 339 352 298 296 314 331 322 285 248 228 195 195 232 251 254 260 247 231 227 226 232 249 263 269 250 235 258 264 249 226 220 225 228 227 236 243 89 87 87 87 88 96 98 92 92 98 111 128 141 161 180 188 190
348 330 324 312 287 289 297 282 276 271 250 240 243 251 275 274 275 295 295 282 269 134 123 88 47 3 274 257 231 152 187 265 285 296 298 311 309 290 298 310 304 286 267 252 239 214 202 228 245 242 245 250 254 248 229 220 229 243 253 249 235 238 251 268 270 259 244 240 238 211 121 109 103 96 94 94 93 93 99 111 122 133 147 166 178 184 189 191
Height
1528 1526 1524 1522 1520 1519 1517 1515 1514 1513 1511 1509 1508 1506 1505 1503 1502 1501 1500 1499 1498 1497 1497 1496 1495 1495 1494 1493 1492 1492 1492 1491 1491 1490 1487 1488 1491 1490 1491 1492 1492 1492 1492 1492 1491 1492 1493 1492 1493 1493 1492 1490 1489 1486 1484 1484 1484 1487 1489 1495 1497 1495 1493 1488 1489 1492 1493 1496 1494 1493 1493 1493 1495 1496 1497 1499 1500 1501 1503 1505 1506 1507 1507 1508 1509 1510 1511 1512
1528 1526 1524 1523 1521 1519 1517 1515 1513 1512 1511 1509 1507 1506 1504 1503 1501 1500 1499 1498 1498 1497 1496 1496 1495 1494 1494 1493 1492 1492 1491 1490 1489 1486 1484 1486 1489 1489 1490 1491 1491 1492 1492 1491 1491 1492 1493 1492 1491 1491 1490 1488 1485 1483 1483 1483 1483 1486 1487 1493 1495 1490 1487 1483 1484 1488 1490 1493 1491 1492 1493 1493 1494 1494 1495 1498 1500 1501 1502 1504 1506 1508 1508 1508 1510 1512 1514 1514
1528 1526 1525 1523 1521 1519 1517 1515 1513 1511 1510 1509 1507 1505 1504 1502 1501 1499 1499 1498 1497 1496 1496 1495 1495 1494 1493 1493 1492 1491 1490 1489 1487 1482 1482 1485 1487 1488 1489 1490 1491 1491 1491 1491 1491 1493 1493 1491 1489 1489 1488 1486 1482 1482 1485 1484 1480 1482 1486 1492 1489 1482 1482 1481 1482 1485 1489 1491 1490 1491 1492 1492 1493 1493 1494 1496 1498 1499 1500 1502 1504 1507 1508 1508 1509 1511 1515 1517
1528 1526 1525 1523 1521 1519 1517 1515 1512 1510 1509 1508 1507 1505 1503 1501 1500 1499 1498 1497 1496 1496 1495 1495 1494 1494 1493 1492 1492 1491 1490 1489 1484 1480 1481 1483 1485 1487 1488 1489 1490 1491 1491 1491 1491 1493 1493 1491 1489 1488 1487 1484 1480 1479 1482 1482 1480 1479 1483 1489 1483 1478 1482 1483 1482 1485 1488 1490 1490 1491 1491 1492 1493 1494 1494 1494 1498 1500 1499 1500 1502 1505 1508 1508 1508 1509 1511 1515
1528 1527 1525 1523 1521 1519 1517 1515 1512 1510 1508 1507 1506 1504 1502 1501 1499 1498 1497 1496 1495 1495 1494 1494 1494 1494 1493 1492 1492 1491 1492 1491 1483 1478 1481 1482 1484 1486 1487 1489 1490 1490 1491 1491 1491 1492 1492 1491 1489 1487 1486 1482 1478 1478 1479 1478 1479 1480 1480 1480 1478 1478 1485 1486 1485 1488 1490 1489 1489 1490 1492 1493 1493 1494 1494 1495 1498 1500 1498 1499 1501 1504 1507 1507 1507 1507 1508 1512
1528 1526 1525 1523 1521 1519 1517 1514 1512 1510 1507 1505 1504 1503 1502 1500 1498 1497 1496 1495 1495 1494 1494 1493 1493 1493 1493 1492 1492 1491 1493 1489 1481 1479 1481 1481 1484 1485 1486 1488 1489 1490 1490 1490 1491 1492 1491 1490 1488 1485 1483 1480 1477 1478 1478 1477 1479 1485 1482 1477 1479 1481 1485 1488 1488 1491 1491 1490 1490 1491 1494 1494 1494 1495 1495 1495 1497 1498 1497 1498 1500 1502 1505 1507 1507 1507 1509 1510
1528 1526 1524 1522 1520 1518 1516 1514 1512 1510 1507 1505 1503 1502 1501 1499 1497 1496 1495 1495 1494 1493 1493 1493 1493 1492 1492 1492 1491 1491 1490 1484 1479 1481 1482 1482 1484 1484 1486 1487 1488 1489 1489 1490 1491 1491 1490 1488 1487 1482 1479 1479 1477 1475 1476 1478 1479 1486 1487 1480 1481 1483 1486 1490 1490 1491 1492 1492 1493 1493 1494 1494 1494 1496 1495 1496 1496 1497 1497 1497 1499 1500 1502 1506 1507 1507 1508 1510
1528 1526 1524 1522 1520 1518 1516 1514 1512 1509 1507 1504 1502 1500 1499 1498 1496 1495 1494 1494 1493 1492 1492 1492 1492 1492 1491 1491 1491 1491 1487 1482 1480 1481 1481 1482 1483 1483 1485 1486 1487 1488 1488 1489 1490 1490 1489 1486 1484 1481 1478 1476 1475 1476 1477 1480 1481 1485 1488 1482 1481 1485 1488 1491 1491 1492 1493 1494 1496 1494 1494 1494 1494 1495 1495 1496 1496 1497 1497 1498 1499 1499 1501 1505 1507 1507 1507 1509
1527 1526 1524 1522 1520 1517 1515 1513 1511 1509 1506 1504 1502 1499 1498 1497 1495 1495 1494 1493 1492 1492 1492 1491 1491 1491 1490 1490 1491 1490 1483 1479 1479 1480 1481 1482 1482 1483 1484 1484 1486 1487 1488 1489 1490 1490 1488 1485 1481 1479 1479 1474 1474 1478 1478 1483 1487 1484 1484 1482 1483 1486 1488 1490 1489 1491 1494 1494 1495 1496 1496 1496 1495 1496 1496 1495 1496 1497 1497 1499 1500 1498 1499 1502 1505 1506 1507 1508
1527 1525 1523 1522 1519 1517 1515 1513 1511 1508 1506 1504 1501 1499 1497 1496 1494 1494 1493 1492 1491 1491 1491 1491 1490 1490 1490 1489 1491 1489 1481 1478 1479 1479 1480 1481 1481 1482 1482 1484 1486 1486 1487 1489 1490 1489 1487 1484 1482 1480 1480 1474 1472 1477 1476 1482 1485 1480 1480 1481 1484 1487 1486 1487 1488 1490 1493 1494 1494 1497 1499 1497 1495 1497 1498 1496 1496 1496 1496 1498 1500 1499 1499 1501 1503 1504 1506 1508
1526 1525 1523 1521 1519 1517 1514 1512 1510 1507 1505 1503 1500 1498 1496 1494 1493 1493 1492 1491 1491 1490 1491 1490 1490 1489 1489 1489 1489 1485 1479 1480 1480 1479 1479 1480 1481 1481 1482 1484 1485 1486 1488 1489 1489 1488 1487 1485 1484 1483 1482 1476 1472 1474 1475 1477 1481 1480 1483 1485 1485 1487 1487 1487 1487 1490 1492 1493 1494 1494 1496 1497 1495 1496 1496 1495 1496 1496 1496 1497 1499 1500 1500 1501 1502 1504 1505 1507
1526 1524 1522 1520 1519 1516 1514 1511 1509 1507 1504 1502 1500 1497 1495 1494 1492 1491 1491 1490 1490 1490 1490 1490 1490 1489 1488 1489 1485 1480 1479 1481 1481 1480 1479 1479 1481 1481 1482 1484 1485 1486 1487 1489 1488 1487 1487 1485 1485 1485 1483 1480 1476 1477 1479 1478 1479 1482 1486 1491 1490 1487 1489 1487 1486 1490 1491 1493 1494 1493 1498 1500 1496 1495 1493 1493 1496 1496 1496 1496 1498 1500 1501 1502 1503 1504 1505 1506
1525 1523 1521 1520 1518 1516 1513 1510 1508 1506 1504 1501 1499 1496 1494 1493 1491 1491 1490 1490 1489 1489 1490 1489 1489 1488 1489 1487 1480 1478 1480 1481 1480 1481 1480 1480 1481 1481 1482 1485 1486 1487 1488 1488 1487 1486 1487 1486 1486 1485 1484 1482 1477 1479 1482 1477 1479 1484 1487 1492 1494 1495 1493 1485 1485 1489 1490 1493 1493 1494 1505 1506 1496 1492 1492 1494 1496 1496 1496 1496 1497 1499 1501 1503 1503 1504 1505 1506
1524 1522 1520 1519 1517 1515 1512 1509 1507 1505 1503 1501 1498 1496 1494 1492 1491 1490 1489 1489 1489 1489 1489 1489 1489 1488 1488 1483 1478 1478 1479 1480 1480 1480 1480 1481 1481 1482 1483 1484 1486 1487 1488 1488 1487 1486 1486 1486 1487 1485 1484 1483 1478 1478 1478 1477 1482 1489 1493 1493 1494 1501 1496 1482 1482 1487 1491 1494 1491 1495 1507 1506 1496 1492 1492 1495 1495 1495 1496 1496 1496 1498 1500 1502 1503 1504 1505 1505
1524 1521 1519 1518 1516 1514 1512 1509 1506 1504 1502 1500 1497 1495 1493 1491 1490 1489 1489 1488 1488 1489 1489 1489 1488 1488 1487 1481 1477 1477 1477 1478 1479 1479 1480 1481 1481 1482 1483 1484 1486 1486 1487 1488 1487 1487 1486 1487 1487 1485 1483 1480 1478 1479 1480 1484 1490 1497 1508 1507 1496 1496 1492 1481 1479 1483 1489 1492 1488 1495 1506 1503 1497 1493 1492 1494 1494 1494 1495 1495 1495 1496 1499 1501 1502 1504 1504 1504
1523 1521 1519 1517 1515 1513 1511 1508 1505 1503 1501 1499 1496 1494 1492 1491 1489 1489 1488 1488 1488 1488 1488 1489 1488 1489 1487 1480 1476 1475 1476 1476 1477 1478 1479 1479 1481 1481 1482 1484 1485 1486 1487 1487 1487 1487 1487 1487 1485 1484 1482 1479 1478 1479 1483 1494 1499 1501 1510 1512 1500 1492 1489 1485 1480 1477 1481 1487 1488 1494 1502 1501 1496 1492 1491 1493 1494 1493 1493 1495 1495 1495 1497 1499 1502 1502 1503 1504
1522 1520 1518 1516 1514 1512 1509 1507 1504 1502 1500 1498 1495 1493 1491 1490 1489 1488 1487 1487 1488 1487 1488 1488 1488 1489 1483 1476 1474 1474 1474 1474 1475 1477 1477 1478 1480 1480 1482 1484 1484 1486 1486 1487 1488 1487 1487 1486 1485 1484 1480 1479 1477 1477 1494 1512 1509 1503 1505 1506 1497 1485 1484 1488 1484 1476 1476 1483 1490 1492 1496 1499 1493 1489 1491 1492 1493 1493 1493 1494 1493 1493 1496 1498 1500 1501 1501 1502
1521 1519 1517 1515 1512 1511 1508 1506 1503 1501 1499 1497 1494 1492 1490 1489 1488 1487 1487 1487 1487 1487 1488 1487 1488 1490 1481 1472 1473 1472 1471 1473 1473 1475 1476 1478 1479 1480 1482 1483 1483 1485 1485 1486 1486 1485 1486 1483 1482 1483 1480 1480 1478 1479 1498 1510 1503 1499 1501 1499 1490 1476 1473 1481 1483 1477 1474 1480 1488 1492 1495 1496 1492 1488 1489 1491 1492 1493 1492 1492 1493 1492 1494 1496 1498 1499 1500 1500
1520 1518 1516 1514 1511 1510 1507 1505 1503 1500 1497 1495 1494 1491 1490 1488 1487 1486 1486 1487 1486 1486 1485 1483 1485 1484 1477 1470 1470 1469 1469 1472 1472 1474 1476 1476 1478 1479 1480 1482 1483 1484 1484 1486 1485 1483 1483 1483 1484 1488 1486 1482 1477 1476 1483 1487 1486 1487 1485 1484 1484 1476 1467 1469 1474 1469 1467 1476 1483 1489 1495 1496 1496 1492 1489 1490 1491 1492 1492 1491 1492 1492 1492 1494 1496 1498 1499 1499
1518 1516 1514 1512 1510 1508 1506 1504 1502 1499 1496 1494 1493 1491 1489 1487 1485 1484 1485 1485 1484 1480 1478 1478 1478 1475 1472 1469 1469 1468 1469 1471 1472 1473 1475 1476 1477 1478 1479 1481 1481 1481 1482 1483 1483 1479 1480 1487 1488 1487 1484 1477 1471 1467 1467 1469 1471 1475 1477 1479 1477 1474 1467 1462 1465 1461 1459 1472 1480 1483 1492 1496 1497 1493 1488 1489 1490 1490 1491 1491 1491 1491 1492 1493 1493 1496 1498 1499
1517 1515 1513 1511 1509 1507 1506 1503 1501 1499 1496 1494 1493 1492 1490 1488 1486 1486 1485 1483 1479 1477 1475 1475 1475 1472 1470 1468 1468 1468 1469 1471 1472 1472 1474 1475 1476 1477 1478 1478 1479 1481 1480 1478 1478 1475 1479 1489 1486 1478 1473 1468 1464 1461 1461 1464 1466 1471 1477 1479 1476 1473 1467 1458 1460 1458 1456 1471 1480 1478 1486 1494 1494 1492 1488 1488 1489 1489 1489 1490 1491 1491 1492 1493 1493 1495 1498 1499
1516 1514 1512 1510 1508 1506 1504 1502 1500 1498 1496 1495 1493 1492 1491 1490 1490 1489 1487 1481 1476 1474 1473 1473 1473 1471 1470 1469 1468 1469 1470 1470 1471 1471 1472 1474 1475 1475 1474 1475 1478 1479 1476 1476 1480 1480 1482 1485 1478 1470 1464 1462 1462 1459 1460 1464 1467 1472 1473 1477 1480 1474 1465 1459 1458 1457 1457 1469 1478 1477 1482 1488 1489 1489 1487 1485 1486 1488 1488 1489 1491 1491 1492 1494 1495 1496 1498 1499
1514 1512 1511 1509 1506 1505 1503 1501 1500 1497 1496 1495 1493 1492 1491 1490 1490 1490 1488 1483 1474 1470 1468 1468 1469 1468 1468 1468 1468 1469 1469 1467 1468 1469 1470 1473 1473 1472 1472 1474 1476 1476 1475 1477 1482 1485 1485 1478 1468 1463 1462 1463 1464 1461 1462 1465 1467 1472 1474 1479 1481 1473 1469 1470 1464 1458 1455 1459 1468 1474 1479 1481 1484 1486 1485 1484 1484 1485 1488 1489 1490 1490 1492 1494 1495 1496 1498 1499
1512 1511 1510 1507 1505 1504 1501 1500 1499 1497 1496 1494 1492 1492 1491 1491 1490 1489 1487 1481 1472 1465 1463 1463 1464 1465 1465 1465 1467 1469 1467 1465 1465 1465 1468 1471 1470 1471 1470 1470 1473 1476 1474 1473 1476 1481 1478 1465 1456 1458 1461 1464 1466 1464 1463 1466 1471 1472 1472 1476 1476 1469 1465 1463 1461 1458 1454 1455 1461 1471 1481 1484 1486 1490 1489 1485 1484 1485 1487 1488 1489 1490 1490 1493 1496 1498 1499 1499
1510 1510 1508 1505 1504 1502 1501 1500 1498 1497 1495 1493 1493 1492 1492 1491 1489 1489 1487 1482 1472 1459 1457 1459 1459 1461 1462 1464 1465 1465 1465 1464 1463 1463 1465 1468 1469 1469 1468 1467 1471 1475 1472 1470 1472 1476 1472 1459 1452 1456 1460 1462 1467 1468 1463 1465 1474 1475 1469 1466 1468 1467 1461 1457 1460 1462 1465 1470 1466 1467 1490 1501 1491 1491 1493 1487 1484 1486 1486 1486 1487 1489 1490 1491 1495 1498 1498 1498
1509 1508 1506 1505 1503 1500 1500 1499 1497 1497 1493 1492 1493 1492 1493 1491 1489 1490 1487 1485 1475 1456 1453 1457 1456 1457 1458 1460 1462 1464 1468 1464 1460 1461 1462 1466 1468 1467 1468 1465 1465 1469 1467 1465 1468 1468 1464 1457 1453 1455 1457 1459 1464 1466 1461 1462 1476 1479 1464 1453 1457 1462 1463 1463 1463 1466 1473 1478 1468 1462 1490 1512 1503 1495 1494 1487 1486 1487 1486 1487 1486 1488 1490 1491 1493 1495 1496 1497
1508 1506 1505 1504 1502 1500 1499 1497 1497 1496 1492 1493 1492 1491 1493 1490 1490 1490 1488 1492 1478 1453 1451 1456 1455 1456 1455 1456 1459 1465 1470 1462 1457 1459 1458 1464 1466 1464 1468 1465 1463 1466 1459 1461 1472 1466 1457 1458 1458 1457 1457 1459 1465 1465 1458 1459 1473 1476 1457 1448 1454 1459 1464 1463 1463 1468 1468 1469 1472 1468 1479 1505 1511 1502 1492 1488 1490 1490 1488 1488 1487 1487 1490 1490 1491 1493 1495 1497
1507 1505 1504 1502 1502 1501 1498 1495 1495 1493 1493 1493 1491 1492 1491 1489 1491 1488 1493 1500 1475 1446 1449 1453 1453 1455 1454 1456 1458 1461 1460 1454 1457 1459 1456 1461 1464 1462 1466 1463 1461 1463 1455 1463 1477 1464 1452 1458 1459 1457 1461 1463 1463 1461 1453 1455 1468 1466 1451 1448 1451 1455 1462 1462 1465 1469 1462 1467 1483 1475 1472 1497 1509 1498 1489 1488 1491 1492 1490 1488 1486 1486 1488 1489 1490 1492 1494 1496
1505 1504 1502 1500 1501 1500 1497 1495 1494 1492 1492 1490 1490 1492 1489 1490 1491 1486 1496 1497 1464 1443 1448 1451 1453 1455 1453 1455 1457 1457 1454 1452 1454 1454 1453 1460 1462 1461 1464 1460 1457 1458 1454 1458 1467 1459 1448 1451 1452 1453 1461 1463 1459 1454 1449 1453 1460 1453 1445 1448 1450 1455 1461 1462 1465 1466 1465 1479 1489 1476 1474 1495 1505 1495 1490 1492 1492 1490 1486 1483 1483 1484 1486 1488 1489 1491 1493 1495
1503 1502 1501 1499 1498 1499 1496 1494 1492 1491 1491 1489 1491 1490 1489 1491 1490 1493 1502 1485 1452 1443 1447 1448 1451 1452 1451 1455 1457 1456 1454 1452 1448 1448 1453 1458 1460 1461 1461 1459 1457 1457 1457 1455 1459 1456 1445 1444 1445 1448 1452 1453 1451 1450 1448 1451 1452 1446 1447 1454 1458 1461 1461 1462 1463 1464 1478 1495 1490 1476 1470 1481 1500 1499 1488 1487 1485 1479 1479 1480 1481 1482 1484 1487 1488 1490 1493 1494
1501 1500 1499 1497 1496 1496 1494 1493 1492 1492 1491 1491 1491 1490 1491 1490 1488 1499 1495 1462 1444 1447 1445 1447 1448 1445 1450 1455 1456 1456 1454 1451 1446 1448 1455 1457 1459 1461 1461 1463 1462 1463 1465 1461 1460 1457 1451 1449 1448 1445 1446 1445 1449 1451 1447 1446 1446 1449 1455 1460 1468 1470 1465 1468 1470 1475 1498 1504 1484 1473 1465 1470 1497 1500 1482 1478 1472 1467 1473 1478 1479 1480 1481 1485 1487 1490 1492 1493
1498 1498 1497 1496 1495 1494 1492 1491 1491 1491 1491 1491 1492 1490 1491 1491 1491 1493 1475 1449 1450 1452 1442 1443 1444 1443 1449 1452 1453 1454 1454 1452 1446 1447 1455 1457 1460 1461 1462 1464 1464 1473 1478 1470 1465 1462 1458 1454 1448 1447 1447 1447 1456 1461 1456 1451 1449 1455 1462 1468 1482 1486 1482 1487 1491 1496 1509 1500 1476 1468 1467 1474 1490 1485 1473 1473 1468 1464 1471 1474 1476 1478 1480 1483 1486 1489 1491 1493
1496 1494 1493 1493 1492 1490 1489 1489 1489 1490 1490 1490 1492 1489 1489 1497 1492 1475 1459 1451 1450 1443 1435 1437 1439 1441 1448 1452 1452 1449 1451 1453 1446 1447 1452 1453 1458 1458 1458 1457 1455 1467 1475 1468 1467 1468 1464 1457 1449 1452 1451 1447 1455 1466 1469 1464 1457 1461 1467 1474 1488 1494 1499 1505 1501 1499 1498 1486 1469 1460 1467 1485 1489 1476 1468 1467 1465 1465 1470 1475 1479 1479 1481 1485 1487 1489 1491 1493
1493 1492 1490 1490 1489 1487 1487 1488 1488 1488 1489 1490 1492 1489 1492 1498 1483 1460 1452 1445 1436 1433 1435 1436 1437 1442 1447 1450 1449 1444 1451 1453 1443 1447 1452 1452 1459 1460 1458 1456 1452 1456 1462 1464 1465 1464 1470 1467 1453 1452 1452 1446 1451 1458 1462 1459 1456 1458 1456 1464 1478 1482 1492 1501 1498 1497 1492 1480 1469 1460 1472 1491 1490 1476 1465 1461 1462 1465 1469 1474 1478 1480 1483 1487 1488 1489 1492 1494
1490 1489 1488 1486 1486 1485 1485 1487 1486 1487 1490 1489 1489 1489 1492 1489 1471 1456 1449 1437 1430 1434 1435 1434 1438 1446 1448 1448 1443 1438 1447 1451 1442 1446 1452 1452 1457 1457 1454 1455 1452 1452 1458 1467 1463 1455 1465 1464 1442 1438 1440 1440 1448 1448 1448 1456 1462 1454 1445 1458 1472 1466 1469 1481 1482 1480 1479 1480 1477 1470 1475 1478 1471 1465 1458 1458 1464 1465 1468 1473 1475 1480 1484 1486 1489 1490 1492 1494
1488 1486 1485 1483 1483 1484 1484 1485 1485 1486 1488 1488 1488 1488 1483 1472 1459 1451 1443 1435 1435 1436 1435 1439 1443 1448 1450 1448 1444 1438 1440 1444 1442 1446 1451 1450 1451 1450 1447 1446 1445 1448 1453 1460 1459 1453 1462 1458 1434 1430 1435 1434 1441 1442 1442 1454 1462 1453 1450 1458 1457 1447 1455 1472 1476 1466 1469 1487 1487 1477 1475 1467 1465 1470 1461 1461 1469 1468 1469 1473 1475 1480 1483 1486 1490 1490 1491 1493
1486 1484 1482 1481 1481 1482 1483 1484 1484 1486 1486 1486 1487 1483 1471 1460 1451 1443 1436 1436 1439 1437 1441 1449 1447 1446 1450 1448 1446 1441 1439 1442 1443 1446 1449 1448 1447 1444 1442 1439 1437 1441 1444 1447 1451 1448 1453 1454 1434 1429 1439 1434 1432 1438 1440 1442 1448 1456 1459 1450 1439 1442 1452 1465 1480 1481 1484 1496 1488 1474 1474 1472 1478 1482 1468 1464 1474 1474 1472 1473 1475 1481 1485 1488 1491 1491 1492 1494
1485 1482 1479 1477 1478 1480 1482 1483 1484 1485 1485 1484 1484 1477 1467 1457 1448 1439 1432 1434 1440 1441 1447 1453 1445 1441 1445 1447 1444 1438 1439 1445 1444 1445 1447 1446 1443 1436 1436 1438 1432 1432 1436 1441 1448 1442 1444 1456 1440 1424 1434 1434 1428 1439 1448 1442 1440 1448 1450 1439 1442 1462 1469 1469 1484 1493 1495 1497 1488 1475 1473 1476 1480 1475 1465 1468 1476 1476 1475 1474 1476 1481 1484 1488 1492 1494 1496 1496
1485 1482 1478 1474 1476 1479 1480 1482 1483 1484 1483 1482 1480 1474 1465 1456 1448 1441 1435 1436 1441 1444 1448 1448 1442 1440 1441 1441 1441 1436 1437 1444 1442 1443 1445 1443 1440 1430 1427 1433 1431 1428 1431 1435 1445 1443 1441 1457 1451 1424 1424 1433 1434 1445 1456 1453 1444 1442 1443 1441 1446 1460 1468 1469 1474 1482 1491 1498 1495 1487 1481 1478 1472 1461 1461 1470 1473 1474 1477 1476 1478 1481 1483 1486 1490 1494 1496 1496
1486 1483 1477 1473 1476 1478 1479 1481 1482 1482 1480 1477 1473 1467 1459 1452 1446 1441 1440 1440 1442 1444 1447 1444 1440 1442 1441 1438 1438 1435 1434 1439 1438 1439 1441 1437 1436 1430 1423 1426 1427 1426 1427 1430 1439 1442 1441 1454 1457 1435 1425 1438 1445 1446 1451 1452 1448 1450 1456 1456 1453 1454 1458 1465 1466 1465 1474 1488 1493 1492 1487 1477 1461 1451 1457 1466 1467 1469 1473 1475 1478 1480 1482 1485 1487 1491 1494 1494
1486 1483 1476 1473 1476 1478 1479 1481 1478 1476 1475 1471 1467 1461 1455 1449 1442 1436 1436 1440 1441 1440 1441 1440 1438 1440 1439 1438 1439 1434 1432 1437 1436 1435 1435 1431 1433 1433 1424 1421 1423 1423 1428 1434 1437 1441 1443 1449 1454 1447 1440 1446 1446 1436 1435 1440 1439 1444 1453 1456 1456 1454 1459 1476 1479 1462 1460 1473 1477 1479 1484 1477 1458 1449 1454 1459 1463 1468 1472 1476 1480 1479 1481 1484 1487 1490 1492 1493
1485 1480 1474 1474 1477 1477 1478 1477 1473 1471 1470 1466 1462 1456 1451 1447 1442 1437 1435 1437 1439 1438 1436 1437 1438 1438 1437 1439 1442 1437 1432 1435 1436 1433 1431 1427 1427 1428 1420 1417 1420 1420 1426 1436 1436 1433 1436 1443 1450 1449 1442 1438 1434 1425 1426 1431 1430 1433 1439 1442 1447 1450 1458 1477 1482 1467 1462 1467 1462 1463 1477 1477 1459 1449 1455 1459 1461 1466 1470 1473 1478 1479 1480 1483 1486 1490 1492 1493
1483 1477 1473 1475 1476 1476 1477 1475 1470 1467 1465 1460 1455 1451 1446 1442 1442 1442 1440 1439 1438 1438 1438 1437 1436 1437 1437 1439 1445 1442 1435 1435 1433 1429 1429 1427 1422 1419 1415 1416 1420 1420 1424 1434 1434 1431 1435 1445 1453 1453 1441 1429 1423 1420 1422 1425 1430 1437 1436 1433 1440 1447 1451 1459 1460 1456 1462 1466 1461 1466 1480 1478 1461 1450 1455 1460 1461 1465 1468 1469 1473 1477 1479 1481 1486 1490 1492 1493
1483 1477 1474 1474 1474 1474 1474 1472 1469 1465 1460 1456 1452 1449 1442 1434 1437 1443 1442 1440 1438 1436 1438 1437 1433 1434 1434 1435 1441 1443 1442 1444 1438 1426 1424 1427 1423 1414 1412 1416 1421 1422 1425 1429 1429 1431 1440 1449 1456 1462 1460 1450 1441 1437 1437 1434 1436 1442 1438 1432 1436 1440 1442 1447 1446 1450 1461 1460 1457 1469 1480 1476 1462 1452 1453 1458 1462 1466 1469 1468 1471 1474 1476 1481 1485 1489 1491 1493
1483 1477 1471 1471 1472 1472 1470 1467 1464 1461 1457 1456 1455 1455 1448 1437 1435 1440 1438 1436 1434 1432 1434 1435 1431 1432 1433 1435 1440 1441 1441 1447 1446 1434 1426 1427 1425 1416 1412 1417 1421 1421 1422 1423 1421 1426 1439 1447 1453 1465 1472 1468 1460 1454 1448 1442 1440 1441 1438 1433 1431 1434 1441 1447 1449 1458 1465 1458 1454 1466 1475 1470 1459 1452 1454 1459 1462 1466 1468 1468 1469 1471 1475 1480 1484 1489 1492 1493
1485 1477 1468 1466 1466 1467 1467 1464 1462 1460 1457 1459 1462 1460 1456 1445 1437 1437 1437 1436 1433 1430 1431 1432 1432 1435 1437 1438 1444 1448 1448 1450 1451 1444 1433 1430 1428 1419 1412 1418 1422 1420 1421 1423 1422 1425 1436 1441 1445 1455 1461 1457 1453 1444 1432 1431 1438 1442 1441 1436 1433 1434 1438 1444 1452 1460 1459 1456 1458 1458 1459 1463 1460 1453 1455 1458 1461 1465 1465 1464 1466 1470 1475 1479 1483 1488 1491 1494
1486 1477 1469 1467 1467 1464 1462 1461 1459 1458 1456 1460 1465 1463 1459 1453 1443 1437 1437 1438 1434 1431 1432 1432 1433 1440 1444 1443 1446 1453 1456 1454 1451 1448 1442 1434 1429 1421 1416 1418 1422 1423 1423 1425 1424 1427 1438 1444 1442 1446 1449 1444 1441 1434 1423 1424 1434 1439 1439 1439 1438 1437 1437 1443 1453 1453 1448 1456 1465 1453 1447 1458 1459 1452 1454 1457 1460 1463 1463 1462 1466 1471 1476 1480 1483 1488 1491 1495
1484 1477 1470 1473 1473 1466 1461 1460 1459 1458 1458 1461 1466 1464 1460 1459 1455 1446 1438 1436 1435 1434 1436 1438 1437 1440 1446 1448 1450 1454 1457 1456 1454 1453 1449 1442 1437 1434 1429 1424 1423 1424 1425 1427 1426 1427 1438 1445 1440 1440 1444 1441 1436 1433 1427 1426 1430 1432 1434 1435 1436 1438 1440 1444 1445 1441 1441 1453 1460 1451 1447 1451 1448 1446 1451 1453 1456 1461 1462 1464 1469 1473 1478 1482 1486 1489 1492 1495
1484 1480 1474 1474 1475 1469 1465 1464 1462 1461 1462 1465 1467 1466 1463 1464 1463 1453 1440 1437 1439 1435 1437 1444 1443 1441 1444 1445 1448 1456 1460 1460 1460 1458 1452 1448 1445 1445 1446 1439 1430 1425 1426 1429 1428 1428 1438 1445 1438 1437 1442 1440 1436 1435 1430 1428 1430 1430 1430 1428 1428 1431 1435 1439 1440 1436 1438 1444 1445 1442 1445 1444 1438 1438 1444 1447 1452 1458 1461 1465 1470 1475 1480 1483 1486 1490 1492 1494
1487 1486 1482 1479 1477 1471 1467 1465 1463 1462 1462 1465 1468 1468 1466 1466 1465 1459 1446 1440 1443 1441 1440 1446 1449 1445 1444 1444 1447 1455 1456 1455 1458 1457 1454 1453 1452 1452 1453 1448 1437 1431 1431 1431 1430 1430 1440 1446 1438 1437 1443 1440 1434 1433 1433 1432 1433 1432 1427 1423 1425 1428 1427 1430 1433 1434 1437 1441 1438 1437 1444 1447 1441 1438 1442 1448 1453 1457 1462 1467 1471 1477 1482 1485 1488 1491 1492 1493
1490 1490 1488 1486 1480 1473 1469 1465 1463 1464 1463 1464 1466 1465 1466 1465 1464 1464 1456 1442 1440 1446 1447 1449 1451 1449 1447 1446 1448 1453 1452 1450 1452 1451 1449 1452 1453 1452 1452 1445 1440 1443 1442 1437 1433 1432 1439 1446 1439 1440 1451 1446 1434 1432 1434 1433 1434 1436 1432 1427 1429 1433 1430 1425 1424 1427 1431 1435 1434 1436 1446 1453 1448 1442 1446 1451 1453 1458 1464 1468 1472 1477 1480 1483 1487 1489 1489 1490
1491 1489 1490 1489 1483 1475 1471 1467 1464 1465 1463 1461 1462 1462 1465 1465 1463 1468 1466 1449 1441 1446 1448 1448 1452 1453 1453 1453 1451 1453 1454 1451 1450 1450 1449 1450 1450 1449 1450 1446 1443 1446 1444 1439 1436 1433 1437 1445 1444 1446 1456 1451 1437 1431 1429 1431 1442 1447 1437 1429 1429 1431 1431 1428 1424 1420 1419 1422 1430 1440 1448 1450 1445 1444 1450 1454 1456 1460 1466 1469 1472 1475 1476 1478 1482 1484 1486 1489